NOAA 16 DEB, 41416

Orbit data source: Space-Track

NOAA 16 DEB, 41416 is space debris in SSO originally from a launch on Thu, 21 Sep 2000 UTC launched from the Air Force Western Test Range (AFWTR). Debris objects in space refer to the collection of defunct objects orbiting the Earth. Examples of debris include non-operational satellites, rocket bodies, and fragments generated from explosions, collisions, or faulty payload assembly.

Loading next visibility...
Identifier
41416, 2000-055KV
Orbit
SSO
Country
Flag of USUS
Related business
Manufacturer
Unknown
Mission
Spacecraft
Bus & Motor
Unknown
Mass
Unknown
Launch date (UTC)
2000-09-21 (26 years ago)
Launch vehicle
Unknown
Launch site
Air Force Western Test Range (AFWTR)
Object type
Payload
Rocket body
Debris
Shape & HBR
Unknown shape, 0.1 m
Radar Cross Section
Small (<0.1 m²)

Expand to show TLE details & history
Last TLE update: 1 week ago

TLE from 1 week ago
0 NOAA 16 DEB
1 41416U 00055KV  26116.10539887  .00007231  00000-0  22691-2 0  9998
2 41416  98.7710 230.5456 0026224 247.8535 111.9869 14.40646757527334
Epoch: 2026-04-26T02:31Z
TLE epoch observation values (Epoch: 2026-04-26T02:31:46.462Z)
Latitude
-0.00001°
Longitude
-21.51218°
Altitude
766.351 km
Speed
7.467 km/s
True Right ascension
15h 22m 10s
True Declination
0° 00' 00"
Sunlit
Object was in full shadow at epoch
Visualization orbit readout
Latitude
Unknown
Longitude
Unknown
Altitude
Unknown
Speed
Unknown
Apparent Right ascension
Unknown
Apparent Declination
Unknown
Sunlit
N/A
Visualization observer readout
Local Sidereal Time
18:51:44
Azimuth
Unknown
Elevation
Unknown
Doppler factor
Unknown
Orbital elements
Apogee altitude
772.198 km
Perigee altitude
734.794 km
Semi-major axis
7,131.633 km
Eccentricity
0.00262
Inclination
98.771°
RAAN
230.5456°
Arg. of periapsis
247.8535°
True anomaly
112.26521°
Mean anomaly
111.9869°
Eccentric anomaly
112.12609°
Mean motion
3.60379 °/min
Orbital period
99.89 mins
BSTAR
0.0022691
Loading maneuver chart data...
Computing Atmospheric mass density...
Loading historical data...
Loading historical data...
Loading historical data...
Loading historical data...
Loading historical data...
Loading historical data...
Loading historical data...

Documentation

Showing up to 5 results
|